User: anonymous   Login
Location: Unspecified
(0.0000°N, 0.0000°E)
Time: 15:51:00
(UTC+00:00)
Language:

RESURS DK-1 - Orbit

View from above orbital plane
View from above orbital plane
View from above satellite
View from above satellite

Ground track
Ground track

The orbit data is extracted from the following two-line orbital elements,

1 29228U 06021A   15147.18283300  .00000517  00000-0  47376-4 0  9999
2 29228 069.9378 210.4659 0002503 015.7608 080.2701 15.01497221495199
Epoch (UTC): 27 May 2015 04:23:16
Eccentricity: 0.0002503
inclination: 69.9378°
perigee height: 560 km
apogee height: 564 km
right ascension of ascending node: 210.4659°
argument of perigee: 15.7608°
revolutions per day: 15.01497221
mean anomaly at epoch: 80.2701°
orbit number at epoch: 49519

The dashed part of the orbit path shows where the satellite is in the earth's shadow,  

DLR